Temp
5 4 5 5 3 2 1 0 -0 -0 -0 -0 -1 -1 -1 -2 -3 -3 -3 -5 -5 -5 -6 -6 -6 -6 -6 -7 -7 -6 -6 -5 -5 -4 -3 -3 -2 -2 -2 -1 -0 -0 -0 1 1 1 2
5 4 5 4 3 2 1 0 -0 -1 -0 -1 -2 -2 -2 -2 -3 -3 -4 -5 -5 -6 -6 -6 -6 -6 -7 -7 -7 -7 -7 -6 -5 -5 -4 -2 -3 -2 -2 -1 -1 -0 -0 1 0 0 1
4 4 4 4 3 2 1 0 -0 -1 -1 -1 -1 -2 -2 -3 -4 -4 -4 -5 -6 -6 -6 -6 -6 -6 -7 -7 -7 -7 -8 -6 -5 -4 -4 -3 -3 -3 -2 -2 -1 -1 -1 -0 -1 -0 0
4 4 4 4 3 2 1 0 -0 -1 -1 -1 -2 -2 -2 -3 -4 -4 -4 -5 -6 -6 -6 -6 -6 -6 -7 -7 -7 -7 -7 -6 -6 -5 -4 -3 -3 -3 -2 -2 -1 -1 -1 -1 -0 0 -1
4 4 4 3 3 2 1 0 0 -0 -1 -1 -2 -2 -2 -3 -4 -4 -5 -5 -6 -6 -6 -6 -7 -7 -7 -7 -8 -7 -7 -6 -5 -5 -5 -3 -2 -3 -3 -2 -2 -1 -1 -1 -1 0 1
4 4 4 3 2 2 2 0 0 0 -1 -1 -1 -1 -2 -3 -3 -4 -5 -5 -6 -7 -7 -7 -7 -7 -7 -7 -8 -7 -7 -6 -6 -5 -5 -3 -3 -3 -3 -2 -2 -1 -1 -1 0 1 1
4 4 4 3 2 2 2 1 0 0 -0 -1 -1 -1 -1 -2 -3 -3 -5 -5 -6 -6 -7 -7 -7 -7 -7 -7 -7 -8 -7 -7 -6 -4 -5 -3 -3 -2 -1 -2 -1 -1 -1 -1 -1 -0 0
4 4 4 3 3 2 2 1 1 0 -0 -1 -1 -1 -1 -2 -2 -3 -4 -5 -6 -6 -6 -7 -8 -7 -7 -7 -7 -7 -7 -6 -5 -5 -4 -3 -3 -3 -2 -2 -1 -1 -1 -1 -0 -0 -0
4 4 4 3 3 2 2 1 1 0 0 -0 -1 -1 -1 -1 -2 -2 -4 -4 -6 -6 -6 -7 -7 -7 -7 -7 -7 -7 -7 -7 -6 -5 -4 -3 -3 -3 -2 -2 -1 -1 -1 0 -0 -1 -0
4 4 4 3 2 2 2 1 1 0 0 -0 -1 -1 -1 -1 -2 -2 -3 -4 -5 -6 -6 -6 -7 -7 -7 -7 -7 -7 -7 -7 -6 -5 -4 -4 -3 -2 -2 -2 -2 -1 -1 -0 -0 -0 -1
4 4 4 3 2 2 2 1 1 0 -0 -0 -1 -1 -1 -1 -1 -2 -2 -3 -4 -5 -6 -6 -6 -6 -7 -7 -7 -6 -6 -6 -5 -5 -4 -3 -3 -3 -3 -2 -2 -1 -1 -1 -0 -0 0
4 4 4 3 3 2 2 1 1 0 -0 -0 -0 -1 -1 -1 -1 -1 -2 -3 -4 -5 -8 -5 -6 -6 -6 -7 -7 -6 -6 -5 -4 -5 -4 -3 -3 -3 -3 -2 -2 -1 -1 -1 -1 -1 -2
4 4 4 3 3 3 2 1 1 0 -0 -0 -0 -1 -1 -1 -1 -1 -2 -2 -3 -5 -5 -5 -5 -5 -6 -6 -6 -6 -4 -3 -4 -3 -3 -3 -3 -3 -2 -2 -2 -1 -1 -3 -3 -3 -3
4 4 4 4 3 3 2 2 1 0 -0 -0 -0 -1 -1 -1 -1 -1 -2 -2 -2 -4 -4 -4 -4 -4 -4 -5 -5 -5 -2 -3 -4 -4 -3 -3 -3 -3 -2 -2 -2 -2 -1 -1 -3 -4 -3
4 4 4 4 4 3 3 2 1 0 -0 -0 -0 -1 -1 -1 -1 -1 -1 -2 -3 -4 -3 -4 -4 -4 -4 -3 -4 -4 -5 -4 -3 -3 -3 -3 -3 -3 -3 -2 -2 -2 -2 -1 -1 -3 -4
4 4 4 4 4 3 3 2 2 1 0 -0 -1 -1 -2 -1 -1 -1 -2 -2 -3 -3 -3 -3 -3 -4 -3 -3 -3 -3 -4 -4 -3 -3 -3 -2 -3 -3 -3 -2 -2 -2 -1 -2 -2 -6 -5
3 3 3 4 4 3 3 3 2 1 1 -0 -1 -2 -2 -2 -2 -2 -2 -2 -3 -3 -3 -3 -3 -3 -3 -3 -3 -3 -3 -4 -3 -3 -2 -2 -2 -4 -3 -3 -2 -2 -2 -2 -1 -1 -4
3 3 3 4 4 3 3 3 2 1 1 -0 -1 -2 -2 -2 -2 -2 -2 -2 -3 -3 -3 -3 -3 -3 -3 -3 -2 -1 -1 -2 -3 -2 -3 -2 -3 -4 -4 -4 -3 -3 -2 -2 -1 -3 -2
3 3 3 4 4 4 3 2 2 1 0 -0 -1 -2 -2 -3 -3 -3 -3 -3 -3 -3 -3 -3 -3 -3 -3 -3 -2 -3 -3 -2 -2 -3 -2 -2 -3 -4 -4 -4 -4 -3 -3 -3 -2 -2 -2
3 3 3 4 4 4 3 2 1 1 0 -0 -1 -2 -3 -3 -3 -3 -3 -3 -4 -4 -3 -3 -3 -3 -3 -3 -2 -2 -3 -3 -3 -3 -2 -2 -2 -2 -3 -2 -2 -3 -3 -3 -3 -3 -3
3 3 3 3 4 3 3 1 0 0 0 -0 -1 -1 -3 -3 -4 -4 -4 -4 -4 -4 -4 -3 -3 -3 -3 -2 -2 -2 -3 -3 -3 -3 -3 -3 -3 -3 -2 -2 -2 -2 -2 -3 -3 -3 -3
3 3 3 3 3 3 2 0 -0 0 -0 0 -1 -1 -2 -4 -4 -5 -5 -4 -4 -4 -4 -4 -4 -4 -3 -3 -3 -2 -2 -3 -3 -3 -3 -3 -2 -3 -3 -3 -3 -3 -3 -3 -4 -3 -3
3 3 3 3 3 3 2 0 -0 -0 -0 -0 -1 -1 -2 -3 -4 -5 -6 -5 -4 -4 -4 -4 -4 -4 -3 -3 -3 -3 -3 -3 -3 -3 -3 -3 -3 -3 -3 -2 -3 -3 -1 -1 -1 -1 -0
2 3 3 3 2 2 1 -0 -1 -1 -1 -1 -1 -1 -1 -3 -4 -5 -5 -6 -5 -5 -4 -4 -4 -4 -4 -4 -3 -3 -3 -3 -3 -3 -3 -3 -3 -3 -3 -3 -6 -1 -1 -1 -1 -1 -1
2 3 3 2 2 1 0 0 -1 -1 -1 -1 -1 -2 -2 -2 -3 -5 -6 -6 -6 -5 -5 -5 -5 -5 -4 -4 -4 -4 -4 -4 -3 -4 -4 -4 -4 -4 -4 -4 -2 -0 -1 -1 -1 -0 -1
2 3 2 2 2 1 0 -0 -0 -1 -1 -1 -2 -2 -2 -2 -3 -4 -5 -6 -6 -6 -6 -5 -5 -5 -5 -5 -4 -5 -4 -4 -4 -4 -4 -4 -4 -4 -5 -5 -5 -2 -3 -3 -2 -2 -2
2 2 2 1 1 0 0 -0 -1 -1 -1 -2 -2 -3 -3 -3 -3 -4 -4 -5 -6 -6 -6 -6 -6 -5 -5 -5 -5 -5 -5 -4 -4 -4 -4 -5 -5 -5 -5 -5 -3 -2 -3 -3 -3 -2 -2
2 2 1 1 1 0 0 0 -1 -1 -1 -2 -2 -3 -3 -3 -4 -4 -5 -5 -6 -6 -7 -6 -6 -5 -5 -5 -5 -5 -5 -4 -4 -4 -4 -4 -4 -5 -5 -5 -5 -3 -3 -3 -3 -3 -3
2 1 1 1 1 0 0 0 -0 -1 -1 -2 -2 -3 -3 -4 -4 -5 -5 -6 -7 -7 -7 -6 -5 -5 -5 -5 -5 -5 -4 -4 -4 -4 -4 -4 -4 -4 -4 -3 -3 -4 -3 -4 -3 -3 -3
Height
3124 3118 3115 3109 3103 3098 3093 3088 3083 3080 3076 3071 3068 3063 3058 3052 3047 3041 3034 3029 3026 3023 3022 3020 3020 3019 3020 3023 3025 3026 3026 3030 3035 3044 3052 3057 3061 3066 3073 3078 3085 3088 3095 3102 3106 3111 3116
3123 3117 3114 3109 3101 3097 3092 3088 3083 3079 3074 3069 3065 3060 3055 3050 3045 3040 3034 3029 3025 3023 3022 3021 3020 3019 3019 3022 3023 3024 3027 3030 3034 3041 3050 3055 3060 3066 3073 3077 3083 3086 3090 3096 3100 3107 3113
3120 3116 3112 3108 3101 3096 3091 3086 3081 3077 3072 3067 3062 3058 3052 3048 3042 3039 3034 3030 3027 3025 3024 3022 3021 3021 3020 3021 3022 3025 3026 3027 3032 3037 3047 3054 3060 3066 3070 3076 3083 3085 3092 3096 3099 3103 3108
3119 3115 3110 3106 3101 3095 3089 3085 3079 3074 3070 3064 3060 3055 3050 3046 3041 3037 3034 3030 3028 3026 3024 3023 3022 3021 3021 3020 3021 3023 3025 3028 3032 3037 3046 3055 3059 3064 3070 3075 3081 3087 3091 3094 3096 3100 3105
3118 3113 3109 3104 3100 3094 3087 3082 3078 3073 3068 3062 3057 3053 3048 3043 3039 3036 3033 3030 3027 3026 3025 3024 3023 3021 3021 3020 3020 3021 3023 3026 3030 3037 3043 3054 3054 3062 3068 3073 3079 3083 3084 3089 3095 3098 3104
3117 3112 3107 3103 3099 3093 3086 3080 3075 3071 3064 3059 3054 3050 3046 3042 3037 3034 3031 3028 3026 3025 3024 3022 3022 3023 3021 3021 3019 3019 3020 3023 3027 3034 3041 3050 3050 3058 3064 3068 3066 3071 3080 3084 3088 3093 3100
3115 3111 3106 3102 3097 3092 3085 3078 3073 3068 3062 3057 3051 3048 3044 3040 3036 3032 3029 3027 3027 3025 3022 3021 3021 3019 3020 3021 3020 3019 3019 3020 3025 3031 3037 3047 3048 3046 3054 3064 3069 3076 3081 3086 3092 3096 3100
3114 3109 3105 3100 3096 3091 3083 3076 3070 3066 3061 3055 3049 3045 3042 3038 3034 3031 3027 3025 3024 3025 3022 3020 3018 3018 3018 3020 3020 3019 3020 3023 3024 3028 3038 3045 3044 3053 3060 3068 3071 3075 3082 3088 3092 3095 3098
3112 3108 3103 3098 3094 3089 3082 3075 3069 3064 3059 3052 3047 3043 3040 3037 3033 3030 3026 3024 3022 3023 3022 3021 3018 3016 3017 3020 3019 3020 3021 3020 3024 3031 3038 3042 3046 3052 3061 3067 3072 3075 3080 3085 3091 3095 3099
3109 3106 3101 3096 3091 3087 3081 3075 3068 3062 3057 3051 3046 3042 3039 3036 3034 3029 3026 3024 3022 3021 3022 3024 3020 3018 3017 3018 3019 3021 3023 3025 3027 3035 3038 3045 3049 3053 3061 3068 3073 3076 3082 3088 3092 3094 3096
3107 3104 3099 3094 3089 3084 3079 3073 3066 3061 3054 3049 3045 3041 3038 3033 3032 3029 3027 3023 3022 3023 3023 3025 3022 3020 3018 3021 3023 3023 3025 3028 3032 3037 3042 3045 3048 3053 3059 3069 3075 3078 3083 3087 3091 3093 3094
3104 3100 3096 3091 3087 3082 3077 3071 3064 3059 3053 3047 3044 3040 3037 3034 3031 3029 3026 3023 3022 3024 3024 3024 3023 3022 3022 3021 3024 3025 3026 3032 3037 3038 3041 3047 3052 3055 3062 3070 3075 3078 3083 3086 3091 3093 3093
3102 3098 3093 3088 3085 3080 3075 3069 3062 3056 3052 3046 3042 3039 3036 3033 3031 3028 3026 3026 3025 3023 3028 3027 3024 3022 3023 3024 3027 3028 3030 3033 3037 3042 3044 3050 3052 3056 3065 3070 3075 3079 3082 3087 3092 3093 3090
3098 3096 3091 3085 3082 3078 3072 3067 3060 3054 3050 3045 3041 3037 3035 3032 3030 3030 3028 3027 3025 3029 3026 3027 3027 3026 3026 3026 3030 3033 3035 3038 3040 3039 3043 3047 3052 3057 3063 3069 3073 3078 3082 3082 3087 3090 3086
3094 3092 3088 3083 3079 3075 3070 3064 3059 3052 3048 3044 3039 3036 3034 3033 3030 3029 3028 3027 3027 3028 3029 3027 3027 3029 3029 3028 3031 3037 3039 3039 3038 3036 3041 3045 3051 3056 3063 3068 3074 3076 3079 3083 3083 3085 3086
3090 3088 3085 3080 3077 3073 3068 3062 3056 3051 3046 3042 3038 3035 3033 3032 3031 3029 3029 3029 3028 3028 3029 3029 3028 3030 3031 3033 3033 3033 3036 3038 3041 3039 3043 3045 3051 3058 3063 3068 3071 3073 3079 3083 3083 3087 3086
3086 3084 3081 3078 3074 3070 3065 3060 3055 3050 3045 3041 3037 3033 3032 3031 3031 3030 3030 3030 3029 3030 3029 3030 3030 3032 3033 3034 3035 3034 3036 3038 3040 3042 3044 3047 3050 3059 3062 3063 3067 3072 3073 3077 3080 3080 3078
3083 3080 3078 3075 3072 3067 3062 3057 3053 3048 3044 3040 3036 3033 3031 3030 3031 3029 3030 3030 3031 3032 3031 3031 3033 3033 3035 3035 3034 3033 3034 3038 3040 3044 3046 3049 3051 3056 3060 3061 3065 3067 3069 3072 3074 3075 3075
3079 3076 3074 3072 3070 3065 3060 3056 3051 3046 3043 3039 3035 3032 3030 3029 3030 3030 3030 3032 3032 3033 3034 3035 3035 3035 3037 3038 3038 3037 3038 3039 3042 3046 3048 3050 3052 3057 3061 3064 3061 3061 3063 3067 3070 3072 3069
3074 3073 3070 3069 3067 3062 3058 3054 3049 3044 3041 3039 3034 3031 3030 3029 3029 3029 3030 3032 3033 3034 3035 3036 3036 3037 3037 3039 3039 3038 3039 3040 3042 3044 3047 3048 3049 3050 3052 3054 3055 3055 3057 3063 3067 3065 3063
3071 3069 3067 3065 3063 3060 3055 3052 3047 3043 3039 3038 3033 3031 3028 3028 3028 3029 3031 3032 3033 3034 3036 3036 3038 3037 3038 3039 3040 3040 3040 3042 3043 3045 3047 3049 3050 3051 3051 3052 3052 3052 3053 3055 3054 3057 3058
3068 3066 3064 3062 3060 3057 3054 3051 3046 3042 3038 3036 3032 3029 3027 3025 3026 3028 3028 3029 3031 3033 3035 3037 3037 3039 3037 3039 3041 3041 3042 3043 3044 3045 3046 3047 3048 3049 3049 3050 3050 3049 3048 3049 3050 3051 3049
3063 3062 3061 3058 3057 3054 3051 3049 3045 3042 3039 3035 3031 3028 3026 3024 3023 3025 3027 3027 3028 3031 3034 3035 3036 3038 3040 3039 3039 3041 3042 3043 3043 3044 3045 3046 3047 3047 3047 3047 3046 3044 3040 3041 3041 3041 3043
3058 3059 3057 3055 3054 3052 3050 3048 3045 3042 3039 3036 3032 3027 3024 3023 3022 3023 3024 3027 3028 3028 3031 3032 3035 3034 3037 3039 3039 3040 3041 3042 3042 3043 3043 3044 3045 3046 3045 3045 3046 3037 3036 3036 3036 3037 3038
3054 3055 3053 3052 3051 3050 3047 3046 3043 3041 3038 3036 3033 3028 3024 3022 3020 3019 3021 3024 3027 3029 3030 3030 3031 3034 3035 3036 3038 3039 3040 3041 3040 3040 3041 3042 3044 3045 3044 3042 3038 3034 3033 3034 3033 3034 3034
3049 3050 3049 3049 3049 3048 3046 3044 3041 3039 3036 3035 3033 3028 3025 3024 3022 3019 3018 3021 3023 3024 3028 3029 3031 3032 3034 3034 3036 3037 3037 3037 3038 3037 3038 3039 3041 3043 3042 3042 3038 3032 3031 3031 3031 3030 3030
3045 3046 3046 3047 3046 3045 3044 3042 3039 3037 3035 3034 3032 3029 3024 3023 3022 3019 3017 3017 3019 3020 3023 3027 3029 3030 3031 3032 3034 3035 3036 3036 3036 3035 3035 3036 3037 3038 3040 3039 3033 3030 3030 3030 3031 3033 3027
3041 3042 3044 3044 3044 3043 3042 3041 3039 3036 3034 3033 3031 3029 3026 3024 3023 3020 3018 3017 3016 3017 3019 3021 3026 3026 3029 3031 3031 3033 3033 3033 3032 3032 3032 3033 3033 3034 3035 3036 3032 3028 3028 3029 3028 3026 3025
3036 3039 3040 3042 3041 3041 3041 3039 3037 3035 3033 3031 3030 3029 3026 3024 3025 3022 3018 3016 3015 3013 3013 3016 3019 3020 3022 3025 3029 3028 3029 3029 3030 3030 3029 3031 3030 3029 3030 3028 3027 3027 3027 3026 3025 3024 3022
Wind_Speed
23 26 30 32 33 31 31 30 26 23 23 25 24 26 27 27 26 27 22 19 16 12 7 3 4 7 12 12 8 6 11 15 30 32 32 28 28 33 29 30 30 37 40 39 39 35 42
23 26 29 31 32 31 31 29 28 26 25 26 26 26 27 27 23 25 20 16 12 7 4 4 2 1 4 6 9 15 9 21 28 35 32 26 27 29 29 27 26 25 30 29 43 49 37
24 27 29 31 32 33 31 30 29 29 27 27 26 26 26 26 22 22 18 13 9 4 4 3 3 2 3 4 5 13 13 20 23 38 36 30 23 29 27 24 25 10 18 20 32 33 37
24 26 28 29 31 32 31 31 30 30 29 27 25 24 26 25 21 18 17 13 6 2 2 1 3 6 6 5 5 6 20 21 26 30 39 31 18 29 22 25 26 13 21 17 21 22 25
24 25 27 28 30 31 31 32 31 29 29 27 24 22 26 24 21 17 15 13 8 6 6 6 7 9 7 4 5 3 12 24 22 24 41 35 27 31 23 26 23 22 23 30 23 25 24
23 24 26 27 28 29 30 32 32 29 30 29 23 20 23 23 21 17 13 12 12 9 10 10 10 6 4 4 5 7 7 18 21 29 39 37 32 34 28 31 36 38 24 30 27 30 24
23 24 25 25 27 28 30 32 33 31 30 29 23 18 20 23 20 18 12 10 9 8 7 9 7 6 4 6 6 6 4 19 28 29 44 41 32 43 43 37 12 29 32 19 26 16 23
22 23 24 24 26 27 28 31 33 33 32 29 24 16 18 20 20 18 12 8 5 6 5 4 6 7 7 5 7 6 1 10 24 30 43 35 19 32 38 31 27 12 25 23 17 20 17
22 22 23 23 24 26 27 30 33 34 33 28 23 15 16 18 20 18 13 7 4 4 5 5 4 1 2 2 4 5 1 3 19 35 32 25 15 23 35 29 16 14 21 20 15 16 16
22 22 22 22 23 25 27 29 31 33 32 28 23 15 15 17 18 17 12 9 3 3 1 7 4 2 2 4 7 8 5 9 17 26 23 21 10 24 35 29 13 16 18 16 17 18 14
22 23 22 23 23 24 26 28 30 30 31 27 23 13 13 16 16 15 11 8 3 4 2 4 6 2 7 4 13 10 8 10 20 8 16 20 13 28 32 30 15 12 17 18 14 19 14
21 22 22 22 23 23 25 28 30 29 29 27 22 13 12 14 15 15 11 7 3 1 3 2 5 5 9 10 8 14 11 11 16 9 15 12 15 24 27 29 15 12 16 17 12 8 5
22 22 21 22 24 23 24 27 30 30 27 25 21 13 10 13 13 13 12 8 3 6 4 7 2 6 12 13 15 14 14 14 8 7 14 17 28 27 29 32 20 16 19 5 2 3 4
19 22 21 22 24 24 24 26 29 30 25 23 18 12 9 11 12 11 11 7 5 8 11 7 5 8 6 5 8 17 17 11 13 9 29 13 15 26 30 31 20 20 18 5 5 4 3
18 21 21 22 25 25 25 26 28 27 24 21 16 11 8 9 12 10 7 4 3 4 4 5 9 7 7 8 9 9 11 18 6 14 4 8 9 21 28 29 23 26 21 11 3 3 1
17 19 20 22 26 25 27 26 26 26 22 19 15 10 8 7 9 8 3 2 4 5 4 4 4 5 7 12 6 3 4 10 16 8 7 9 11 20 19 24 28 18 24 12 8 3 4
17 18 19 21 26 26 27 25 24 23 20 17 12 9 7 7 6 5 1 3 5 5 3 4 8 7 5 5 9 5 3 7 12 14 6 13 7 18 21 24 27 27 23 18 9 8 4
18 17 18 20 24 27 27 24 22 18 16 14 10 6 7 4 4 3 3 4 4 1 7 10 9 8 4 4 2 3 4 4 11 15 4 9 6 12 15 17 24 28 26 30 15 5 10
17 18 17 19 22 26 26 21 18 14 13 12 10 7 6 4 4 4 4 4 4 5 6 9 5 6 5 1 0 7 10 8 11 12 6 10 4 9 6 15 21 26 32 29 29 17 18
17 17 16 17 21 24 24 18 15 14 12 11 9 5 5 5 7 7 7 6 5 3 4 7 6 5 4 2 1 5 7 11 12 12 8 6 3 6 10 2 12 28 29 35 36 28 21
18 17 15 17 20 22 21 15 13 13 14 12 9 5 5 4 7 10 9 7 6 4 3 5 5 6 5 1 1 1 8 10 12 10 9 7 4 8 8 10 13 16 24 35 38 47 27
18 16 15 16 19 18 17 13 13 13 13 13 10 8 5 6 6 8 10 11 9 7 4 4 4 5 4 3 2 2 5 5 8 10 9 9 5 7 15 17 12 14 17 21 32 38 42
18 16 15 15 17 15 14 11 12 13 14 15 13 11 6 5 4 8 8 12 12 10 9 7 5 6 5 3 4 3 5 6 8 13 10 14 8 7 5 11 14 16 22 24 24 28 34
18 15 14 15 13 11 8 9 11 12 14 14 14 14 11 5 4 7 8 11 12 13 13 9 9 8 7 6 5 5 6 6 8 9 10 11 11 11 5 3 1 8 10 10 15 20 24
19 15 15 13 8 5 5 9 10 10 11 14 13 15 15 14 7 6 10 13 15 16 14 13 12 10 9 7 6 4 7 8 10 10 10 10 10 6 4 6 15 19 13 11 12 14 12
20 17 13 8 4 1 5 7 10 10 9 12 13 15 14 12 14 7 5 10 15 18 18 18 14 12 10 10 8 5 3 3 3 4 11 12 11 10 4 3 4 4 3 5 8 11 6
21 15 10 8 6 1 4 6 9 11 9 10 12 13 14 9 13 15 10 4 9 14 18 18 17 18 16 13 14 12 8 6 5 5 6 10 13 15 13 7 10 10 11 11 5 5 9
21 15 12 10 6 5 7 9 9 10 11 10 11 11 13 8 11 13 14 11 5 11 12 12 11 14 15 16 13 11 9 9 9 9 5 6 7 8 10 7 9 3 6 7 7 11 12
21 17 16 11 9 7 9 12 13 10 10 10 10 10 13 7 10 12 12 13 10 8 14 17 17 13 11 12 13 10 10 7 11 6 10 9 11 4 10 4 4 6 4 7 9 9 9
Wind_Direction
353 352 352 351 350 350 350 353 349 345 335 332 335 337 339 338 347 354 348 344 339 332 334 325 274 249 256 261 232 230 208 211 205 197 193 192 197 199 195 201 205 214 221 221 211 215 225
351 351 354 349 350 350 349 350 349 346 338 335 340 339 339 338 342 352 350 354 354 349 19 69 91 274 270 272 223 207 199 188 199 204 197 187 195 194 194 199 201 220 224 218 217 225 217
351 350 352 349 350 350 352 349 350 348 342 337 338 344 340 340 338 350 347 358 3 30 85 87 60 11 326 291 252 215 197 194 186 192 199 187 197 195 195 199 193 197 197 208 223 233 225
350 350 350 348 350 352 350 347 351 350 346 336 336 341 342 343 339 342 345 347 345 319 180 199 348 341 318 299 313 198 209 196 200 199 190 188 191 192 190 194 193 194 196 187 203 227 227
348 348 348 347 352 353 348 345 345 343 346 340 333 339 341 343 341 338 341 335 319 274 259 267 292 314 301 275 286 269 202 217 204 196 186 184 189 189 185 190 182 188 193 200 198 216 226
345 345 346 348 352 352 349 345 346 343 342 344 333 337 339 344 343 343 335 323 338 293 272 272 285 293 271 271 288 288 253 183 198 186 181 186 206 184 186 184 190 193 189 198 199 205 221
342 342 343 348 349 352 349 347 348 344 342 343 335 336 336 344 344 347 338 322 340 340 299 266 260 266 275 289 305 290 290 211 163 171 179 184 206 190 196 192 175 203 203 201 199 211 219
337 339 341 346 347 350 348 347 348 346 344 343 338 334 330 342 343 352 343 319 311 342 353 340 275 258 260 268 273 255 182 218 163 169 176 196 223 197 194 193 202 203 209 212 215 212 218
332 336 339 342 345 347 347 345 348 347 345 343 340 333 329 337 343 350 348 344 309 297 316 19 28 60 227 148 225 176 216 156 165 172 189 197 219 189 189 182 181 202 209 200 206 196 214
327 333 336 337 342 345 345 342 347 346 344 344 343 335 330 338 344 351 353 3 342 203 289 44 37 49 217 160 151 158 135 161 158 172 173 188 198 197 192 183 185 184 197 199 198 195 194
323 331 334 334 338 343 344 342 341 344 341 344 345 337 330 338 345 349 357 20 73 122 72 11 22 77 123 107 139 142 124 152 167 181 176 190 209 184 184 181 178 186 183 197 208 211 212
319 327 331 332 334 339 341 340 338 340 339 342 345 339 330 336 345 346 357 13 40 70 12 68 86 79 113 124 136 131 115 140 155 136 169 185 195 169 182 177 168 158 173 183 197 221 255
317 321 329 330 331 338 338 337 334 336 338 339 341 342 332 334 345 348 356 6 49 47 352 14 34 123 107 119 118 115 113 173 188 173 176 180 169 174 185 186 180 171 160 111 114 197 224
313 317 327 328 330 335 337 335 333 335 339 337 338 343 333 327 339 353 352 33 62 80 74 65 64 59 76 95 118 136 134 180 215 220 143 148 134 161 184 188 189 168 174 168 173 189 227
308 315 322 327 328 333 338 335 332 334 338 335 335 342 330 327 334 348 353 37 99 120 53 72 89 79 83 86 111 122 170 173 162 94 102 120 113 172 181 192 191 193 202 215 107 143 173
305 314 317 325 324 333 336 335 333 333 338 332 331 338 329 329 326 328 8 48 132 135 104 84 77 43 116 110 125 109 129 181 159 149 112 124 113 178 181 194 205 205 204 206 220 138 255
301 308 315 323 321 330 335 334 332 335 334 330 327 333 327 325 316 306 136 142 149 141 117 105 102 108 95 104 132 134 127 173 184 193 144 159 153 179 182 201 202 205 206 213 204 233 193
296 304 311 319 320 327 335 336 335 339 331 330 320 326 325 308 294 259 141 164 170 188 123 127 123 114 100 107 150 228 192 156 175 174 214 167 142 156 200 214 215 214 219 217 215 213 227
292 300 306 315 320 327 332 337 342 348 342 324 326 318 311 279 277 228 188 161 156 165 160 153 142 129 125 143 116 145 167 181 174 196 186 198 151 131 190 240 229 224 219 222 225 238 250
286 290 304 311 321 324 329 343 351 354 348 333 339 314 299 258 237 221 192 170 145 158 197 189 179 168 150 18 43 198 180 168 183 186 195 189 222 223 207 206 220 225 230 227 232 234 236
281 286 296 310 322 322 329 342 356 355 349 345 346 327 288 238 229 222 208 200 187 159 169 187 205 199 200 225 348 147 180 174 172 179 194 203 247 235 232 249 257 252 247 233 230 232 232
273 282 290 308 314 320 328 338 355 356 357 352 346 336 311 275 238 220 214 210 205 196 196 204 185 209 189 191 194 195 204 209 203 218 221 225 244 252 247 256 258 254 247 245 243 244 243
265 269 281 303 307 319 326 340 353 359 3 5 4 357 337 310 267 236 212 206 214 215 220 216 218 214 221 209 200 211 211 231 232 239 250 242 248 254 255 252 261 275 260 247 249 248 251
257 256 278 294 303 324 332 344 352 359 4 9 22 27 25 3 283 245 237 214 218 225 223 230 230 214 213 219 221 233 242 243 227 236 240 245 248 249 277 266 257 251 263 261 257 258 257
245 248 271 284 306 311 354 6 1 355 360 4 14 29 37 39 19 261 246 237 221 231 238 231 235 225 219 220 231 259 255 257 248 239 231 233 234 233 242 223 278 283 270 264 262 269 277
233 244 262 269 244 333 24 13 12 360 358 356 5 21 27 27 27 23 263 247 236 230 239 238 237 236 233 231 218 228 231 223 230 230 226 227 225 227 232 259 251 294 314 296 285 283 288
226 241 241 214 184 146 29 21 17 3 357 348 355 12 23 27 29 35 28 284 250 242 241 249 245 242 237 236 229 240 247 238 238 223 210 211 222 233 238 249 271 272 279 276 264 291 313
224 223 199 179 158 97 58 34 19 4 358 351 359 360 23 35 27 31 28 23 300 248 241 236 229 230 232 218 222 229 240 238 240 236 240 225 204 218 228 235 265 281 282 260 277 285 302
204 194 176 159 128 90 51 32 23 3 356 353 358 3 22 49 32 30 29 12 348 284 237 218 203 188 199 203 218 217 229 238 242 246 241 237 232 227 218 247 253 298 297 302 305 305 309